TimeCDT,TemperatureF,Dew PointF,Humidity,Sea Level PressureIn,VisibilityMPH,Wind Direction,Wind SpeedMPH,Gust SpeedMPH,PrecipitationIn,Events,Conditions,WindDirDegrees,DateUTC
12:53 AM,55.9,35.1,45,29.71,10.0,SW,13.8,-,N/A,,Overcast,230,2012-10-19 05:53:00
1:53 AM,55.0,36.0,49,29.72,10.0,SW,11.5,-,N/A,,Overcast,230,2012-10-19 06:53:00
2:53 AM,54.0,36.0,51,29.71,10.0,WSW,10.4,-,N/A,,Overcast,240,2012-10-19 07:53:00
3:53 AM,54.0,36.0,51,29.71,10.0,SW,11.5,-,N/A,,Overcast,230,2012-10-19 08:53:00
4:53 AM,54.0,36.0,51,29.70,10.0,WSW,9.2,-,N/A,,Overcast,240,2012-10-19 09:53:00
5:53 AM,54.0,36.0,51,29.72,10.0,West,8.1,-,N/A,,Overcast,270,2012-10-19 10:53:00
6:53 AM,52.0,36.0,54,29.72,10.0,West,6.9,-,N/A,,Overcast,270,2012-10-19 11:53:00
7:53 AM,53.1,36.0,52,29.72,10.0,West,5.8,-,N/A,,Overcast,260,2012-10-19 12:53:00
8:35 AM,53.6,37.4,54,29.72,10.0,SW,10.4,-,N/A,,Overcast,230,2012-10-19 13:35:00
8:53 AM,55.9,36.0,47,29.73,10.0,West,9.2,-,N/A,,Overcast,260,2012-10-19 13:53:00
9:23 AM,57.2,35.6,44,29.73,9.0,WSW,15.0,23.0,N/A,,Overcast,250,2012-10-19 14:23:00
9:53 AM,60.1,37.0,42,29.73,10.0,West,13.8,28.8,N/A,,Mostly Cloudy,280,2012-10-19 14:53:00
10:53 AM,61.0,37.9,42,29.74,10.0,WNW,18.4,28.8,N/A,,Clear,290,2012-10-19 15:53:00
11:53 AM,63.0,37.9,40,29.75,10.0,WNW,17.3,24.2,N/A,,Partly Cloudy,300,2012-10-19 16:53:00
12:53 PM,63.0,39.0,41,29.75,10.0,NW,13.8,32.2,N/A,,Mostly Cloudy,310,2012-10-19 17:53:00
1:53 PM,63.0,39.9,43,29.75,10.0,WNW,16.1,23.0,N/A,,Overcast,300,2012-10-19 18:53:00
2:53 PM,62.1,39.0,43,29.77,10.0,WNW,16.1,19.6,N/A,,Overcast,300,2012-10-19 19:53:00
3:53 PM,62.1,39.9,44,29.78,10.0,NW,9.2,20.7,N/A,,Overcast,310,2012-10-19 20:53:00
4:53 PM,61.0,39.9,46,29.80,10.0,WNW,10.4,-,N/A,,Mostly Cloudy,300,2012-10-19 21:53:00
5:53 PM,59.0,39.9,49,29.82,10.0,NW,8.1,-,N/A,,Scattered Clouds,320,2012-10-19 22:53:00
6:53 PM,55.9,39.9,55,29.83,10.0,Calm,Calm,-,N/A,,Mostly Cloudy,0,2012-10-19 23:53:00
7:53 PM,51.1,42.1,71,29.86,10.0,Calm,Calm,-,N/A,,Partly Cloudy,0,2012-10-20 00:53:00
8:53 PM,48.9,44.1,83,29.86,10.0,Calm,Calm,-,N/A,,Mostly Cloudy,0,2012-10-20 01:53:00
9:53 PM,51.1,45.0,80,29.87,10.0,Calm,Calm,-,N/A,,Overcast,0,2012-10-20 02:53:00
10:53 PM,48.0,43.0,83,29.87,10.0,West,3.5,-,N/A,,Clear,260,2012-10-20 03:53:00
11:53 PM,46.0,43.0,89,29.86,10.0,Calm,Calm,-,N/A,,Clear,0,2012-10-20 04:53:00